SB KEPS @ AMSAT $ORB13122.N 2Line Orbital Elements 13122.AMSAT
HR AMSAT ORBITAL ELEMENTS FOR AMATEUR SATELLITES IN NASA FORMAT FROM WA5QGD FORT WORTH,TX May 2, 2013 BID: ORB13122.N
DECODE 2-LINE ELSETS WITH THE FOLLOWING KEY: 1 AAAAAU 00 0 0 BBBBB.BBBBBBBB .CCCCCCCC 00000-0 00000-0 0 DDDZ 2 AAAAA EEE.EEEE FFF.FFFF GGGGGGG HHH.HHHH III.IIII JJ.JJJJJJJJKKKKKZ KEY: A-CATALOGNUM B-EPOCHTIME C-DECAY D-ELSETNUM E-INCLINATION F-RAAN G-ECCENTRICITY H-ARGPERIGEE I-MNANOM J-MNMOTION K-ORBITNUM Z-CHECKSUM
TO ALL RADIO AMATEURS BT
AO-07 1 07530U 74089B 13122.05403392 -.00000025 00000-0 11211-3 0 6701 2 07530 101.4280 113.2394 0012073 020.8560 009.2172 12.53595939760005 FO-29 1 24278U 96046B 13122.14005868 -.00000003 00000-0 36029-4 0 1067 2 24278 098.5592 186.8543 0349465 283.4766 126.5691 13.52999058825089 SO-33 1 25509U 98061B 13121.80559411 .00001123 00000-0 21163-3 0 4860 2 25509 031.4324 330.2253 0351271 111.9059 351.3425 14.29029421758257 RS-22 1 27939U 03042A 13122.13022213 .00000674 00000-0 13583-3 0 3727 2 27939 097.7990 312.3856 0013168 339.1215 020.9445 14.64408161512551 VO-52 1 28650U 05017B 13120.10411470 .00002021 00000-0 24873-3 0 4097 2 28650 097.5702 141.1729 0027494 080.8810 311.8697 14.83750000431954 HO-68 1 36122U 09072B 13122.21771624 -.00000044 00000-0 00000 0 0 5108 2 36122 100.3102 180.4239 0007866 099.3044 260.8959 13.16303533162361 UO-11 1 14781U 84021B 13122.16113590 .00001051 00000-0 14281-3 0 1674 2 14781 097.9069 184.1225 0010161 082.7529 277.4838 14.80844366567122 AO-16 1 20439U 90005D 13121.49259354 .00000222 00000-0 98253-4 0 7356 2 20439 098.4684 062.6104 0009766 299.2911 166.6850 14.32163383215553 LO-19 1 20442U 90005G 13121.87297259 .00000194 00000-0 87509-4 0 6694 2 20442 098.4374 064.9162 0010656 287.2106 105.8594 14.32375850215807 AO-27 1 22825U 93061C 13121.39721662 .00000190 00000-0 91307-4 0 3721 2 22825 098.6150 065.9247 0009412 070.2184 076.1096 14.29554152 21944 IO-26 1 22826U 93061D 13119.84484564 .00000172 00000-0 83868-4 0 1288 2 22826 098.6088 064.6864 0009939 068.0977 325.8930 14.29836371 21852 GO-32 1 25397U 98043D 13119.96052840 .00000108 00000-0 65988-4 0 584 2 25397 098.4099 089.8285 0002442 090.6736 301.9414 14.23334846769080 NO-44 1 26931U 01043C 13121.26238300 .00000219 00000-0 11710-3 0 3170 2 26931 067.0540 020.4739 0006967 285.7508 220.7055 14.29913253604711 SO-50 1 27607U 02058C 13122.16684323 .00001037 00000-0 17950-3 0 547 2 27607 064.5586 044.2315 0050887 178.1272 328.6152 14.72878693556933 CO-55 1 27844U 03031E 13119.63530264 .00000262 00000-0 14038-3 0 6363 2 27844 098.7014 129.4141 0010124 036.6186 077.8911 14.21196572509832 CO-57 1 27848U 03031J 13122.00876507 .00000356 00000-0 18453-3 0 5835 2 27848 098.7096 131.2413 0009989 035.8494 018.4622 14.20926878510100 AO-51 1 28375U 04025K 13121.93410100 .00000311 00000-0 10530-3 0 5467 2 28375 098.1972 079.2616 0084278 155.3547 237.5805 14.41101456464677 CP3 1 31129U 07012N 13122.15205398 .00001103 00000-0 25762-3 0 4500 2 31129 097.8957 117.3984 0099862 209.8881 286.3679 14.53592148320307 CO-65 1 32785U 08021C 13120.15525174 .00001754 00000-0 21774-3 0 6182 2 32785 097.7559 179.0520 0015938 105.5288 288.4896 14.83757633270751 PRISM 1 33493U 09002B 13122.35603223 .00003158 00000-0 36955-3 0 7655 2 33493 098.2125 277.7976 0017726 345.7487 014.3237 14.85719270231119 SOHLA-1 1 33496U 09002E 13121.37262845 .00000775 00000-0 13675-3 0 345 2 33496 098.1292 237.5294 0007933 110.6101 281.7535 14.70253325228995 SO-67 1 35870U 09049F 13122.30438575 .00005587 00000-0 21585-3 0 203 2 35870 097.1948 152.6959 0003531 104.2984 024.4291 15.26630621201254 TISAT-1 1 36799U 10035E 13122.78479799 .00002223 00000-0 27903-3 0 378 2 36799 098.0348 207.2081 0013806 211.2981 148.7442 14.83127161151843 STUDSAT 1 36801U 10035G 13121.80501815 .00011245 00000-0 12360-2 0 6223 2 36801 098.0443 208.9511 0012280 193.3127 318.2379 14.87748399151834 ALMASAT-1 1 38078U 12006B 13122.59740869 .00031593 00000-0 78726-3 0 2281 2 38078 069.4809 306.6441 0709611 205.3929 151.0768 14.21854272 62756 XATCOBEO 1 38082U 12006F 13122.25885619 .00119666 51019-5 23809-2 0 1180 2 38082 069.4765 287.4892 0608859 194.9287 163.3301 14.47909456 63258 SOMP 1 39135U 13015F 13122.61299234 .00003254 00000-0 27376-3 0 258 2 39135 064.8809 351.6631 0019016 211.0254 148.9578 14.99878898 1997 CUBEBUG-1 1 39154U 13018E 13121.85613652 .00000610 00000-0 10152-3 0 180 2 39154 098.3619 197.8780 0020118 186.8470 173.2465 14.73712766 840 NOAA-10 1 16969U 86073A 13122.13618955 .00000184 00000-0 92032-4 0 3360 2 16969 098.5485 150.9703 0012373 026.6768 005.2090 14.27631740385375 NOAA-11 1 19531U 88089A 13122.27205623 .00000051 00000-0 48325-4 0 3387 2 19531 098.7113 206.3854 0011580 038.4713 354.4241 14.15011809269638 NOAA-12 1 21263U 91032A 13122.50873336 .00000136 00000-0 75949-4 0 8080 2 21263 098.6998 148.2502 0013394 357.7231 161.5506 14.25559246142043 MET-3/5 1 21655U 91056A 13122.13762466 -.00000434 00000-0 -11595-2 0 6795 2 21655 082.5542 286.8295 0012491 241.5263 118.4602 13.17050393 43873 MET-2/21 1 22782U 93055A 13121.50074323 .00000099 00000-0 75971-4 0 7275 2 22782 082.5470 139.9658 0021662 343.3947 172.1325 13.83702598993187 OKEAN-4 1 23317U 94066A 13119.79890713 .00001380 00000-0 16089-3 0 2059 2 23317 082.5378 095.0792 0021692 030.7525 043.6076 14.84374196 1762 NOAA-14 1 23455U 94089A 13122.44175200 .00000112 00000-0 82206-4 0 2934 2 23455 098.8030 207.5717 0010569 126.2014 002.7548 14.13902978945902 NOAA-15 1 25338U 98030A 13122.16413164 .00000319 00000-0 15474-3 0 7137 2 25338 098.7219 112.6260 0009509 259.1320 162.6107 14.25207264778280 RESURS 1 25394U 98043A 13121.45054750 .00000064 00000-0 45514-4 0 3644 2 25394 098.3576 099.5400 0002139 063.2004 082.9509 14.24327946769704 FENGYUN1 1 25730U 99025A 13121.92223581 .00002317 00000-0 13243-2 0 8630 2 25730 098.8755 082.0113 0023973 173.0161 220.2879 14.10420997719520 OKEAN-0 1 25860U 99039A 13122.46220303 .00000841 00000-0 13382-3 0 9342 2 25860 097.9859 085.5376 0000824 092.3105 057.9590 14.74560392741613 NOAA-16 1 26536U 00055A 13122.16820381 .00000143 00000-0 10149-3 0 1909 2 26536 099.0468 174.4683 0009604 262.7707 173.0465 14.12867411650072 NOAA-17 1 27453U 02032A 13122.75419308 .00000104 00000-0 44857-4 0 1128 2 27453 098.3135 139.2370 0010780 303.2833 056.7796 14.24583803564255 NOAA-18 1 28654U 05018A 13122.09752523 .00000276 00000-0 17668-3 0 5960 2 28654 099.0954 089.6620 0013790 342.6363 156.6790 14.11805965409558 NOAA-19 1 33591U 09005A 13122.10471777 .00000350 00000-0 21701-3 0 7819 2 33591 098.9010 064.5397 0013870 195.7332 295.8826 14.11492013217997 HUBBLE 1 20580U 90037B 13121.47261588 .00002733 00000-0 18330-3 0 2304 2 20580 028.4691 219.0490 0002945 209.0749 256.6760 15.03526634 62660 ISS 1 25544U 98067A 13122.90694444 .00013045 00000-0 22198-3 0 7344 2 25544 051.6485 332.9137 0007705 230.2991 320.0573 15.51738862827670 CO-58 1 28895U 05043F 13122.12974799 .00001089 00000-0 23036-3 0 4654 2 28895 097.8761 339.6918 0016852 223.2479 136.7400 14.61058840400217 FALCON 1 30776U 07006E 13119.50461734 .00004008 00000-0 24268-3 0 6029 2 30776 035.4299 140.9204 0002671 245.7741 241.7597 15.10204059338054 MAST 1 31126U 07012K 13122.05080074 .00000750 00000-0 17616-3 0 7439 2 31126 097.8798 120.6121 0093238 195.7104 196.5837 14.54521503320619 CAPE1 1 31130U 07012P 13121.43996281 .00000934 00000-0 22034-3 0 7514 2 31130 097.8962 116.3714 0100195 213.0350 146.4563 14.53421807319988 COMPASS 1 32787U 08021E 13122.13872907 .00003769 00000-0 44382-3 0 6114 2 32787 097.7563 181.8911 0016368 096.4290 316.0718 14.85293953271138 AAUSAT2 1 32788U 08021F 13122.16224553 .00004747 00000-0 55144-3 0 5974 2 32788 097.7571 182.5057 0015874 096.1636 320.5637 14.85734786271177 DO-64 1 32789U 08021G 13120.17347469 .00006176 00000-0 67475-3 0 6245 2 32789 097.7713 184.0637 0015364 097.1757 296.8385 14.88142125270982 CO-66 1 32791U 08021J 13121.19668566 .00003141 00000-0 37834-3 0 5946 2 32791 097.7567 180.3965 0016750 100.6292 292.6793 14.84462843270906 RS-30 1 32953U 08025A 13122.34369231 .00000010 00000-0 00000 0 0 8165 2 32953 082.4981 096.6968 0018413 337.6486 022.3796 12.43033457224216 METEOR-M 1 35865U 09049A 13122.13421596 .00000003 00000-0 20895-4 0 4120 2 35865 098.6064 175.6787 0001886 189.4440 170.6703 14.21884294187920 RS-38 1 35869U 09049E 13122.17534994 .00000055 00000-0 44305-4 0 3819 2 35869 098.6002 175.6461 0004012 200.5703 159.5324 14.22123758187956 JUGNU 1 37839U 11058B 13121.53062844 .00000489 00000-0 11974-3 0 3782 2 37839 019.9607 229.4838 0018962 128.9573 338.9910 14.12146086 80296 SRMSAT 1 37841U 11058D 13121.51957678 .00000440 00000-0 98099-4 0 3793 2 37841 019.9713 240.6828 0011955 083.6345 358.7480 14.10217972 80170 RAX-2 1 37853U 11061D 13120.09610885 .00009150 00000-0 69156-3 0 4898 2 37853 101.7178 311.4589 0237232 165.3005 341.8922 14.83049476 81311 AUBIESAT 1 37854U 11061E 13122.09373942 .00012653 00000-0 93228-3 0 4856 2 37854 101.7221 315.1532 0237136 158.3403 321.5268 14.83770895 81625 HRBE 1 37855U 11061F 13120.06926299 .00008757 00000-0 65292-3 0 4828 2 37855 101.7216 311.9848 0238128 164.5625 342.0110 14.83411786 81312 RS-39 1 38051U 11062C 13122.34789157 .00017060 00000-0 56734-3 0 4021 2 38051 051.6337 071.6168 0013416 097.6082 040.3748 15.31187100 70752 E-STAR 1 38079U 12006C 13122.83989069 .00088999 41107-5 18632-2 0 889 2 38079 069.4778 291.1131 0639692 197.0407 259.5464 14.40390266 63190 GOLIAT 1 38085U 12006J 13122.27615591 .00081723 39201-5 17135-2 0 56 2 38085 069.4892 294.2731 0648591 198.7228 158.9160 14.38487027 63061 HORYU-2 1 38340U 12025D 13121.84565033 .00001693 00000-0 28520-3 0 4804 2 38340 098.2137 069.1095 0013771 043.5622 316.6675 14.70810740 51306 RS-40 1 38736U 12041D 13121.70576941 .00000010 00000-0 00000 0 0 2591 2 38736 082.4809 184.1008 0022828 069.8028 290.5510 12.42867507 34479 PROITERES 1 38756U 12047B 13122.43577312 .00000623 00000-0 10250-3 0 7400 2 38756 098.2546 198.6350 0011375 251.3248 108.6728 14.74162955 34653 RAIKO 1 38852U 98067CN 13121.56761818 .00107200 00000-0 86651-3 0 2123 2 38852 051.6396 328.0723 0014298 197.0708 162.9810 15.69868990 32529 FITSAT 1 1 38853U 98067CP 13122.77677020 .00182183 00000-0 11133-2 0 2168 2 38853 051.6424 318.9161 0012331 221.7828 138.2231 15.76184975 32806 TechEdSat 1 38854U 98067CQ 13122.90357452 .02540123 11776-4 15178-2 0 2789 2 38854 051.6238 308.2960 0013253 271.3514 088.4545 16.17491610 32959 F 1 1 38855U 98067CR 13122.41243134 .01023141 54976-3 16423-2 0 2605 2 38855 051.6238 312.5422 0014624 260.7973 099.1384 16.02822285 32742 WeWish 1 38856U 98067CS 13069.98095549 .16701328 12537-4 10063-2 0 2487 2 38856 051.6166 215.0521 0008325 316.0438 044.8765 16.41348316 24586 OSSI-1 1 39131U 13015B 13111.50052306 -.00001974 62411-5 00000 0 0 20 2 39131 064.9363 026.5170 0214649 059.2674 114.9122 15.54454958 325 BEESAT-3 1 39134U 13015E 13122.61301431 .00004177 00000-0 34763-3 0 275 2 39134 064.8800 351.6608 0018102 208.9461 151.0693 14.99884643 1999 BEESAT-2 1 39136U 13015G 13122.67948651 .00003753 00000-0 31348-3 0 279 2 39136 064.8809 351.4513 0018518 208.7994 151.2150 14.99907536 2003 /EX